THA112 VTBS-VTCC

Flight info

Callsign THA112
Flight time 1h 2m
Altitude 38000
Route OLVUK1G OLVUK Y26 MARNI MARNI2B
Aircraft B77W/H-SDE1E2E3FGHIJ2J3J4J5M1RWXY/LB1D1

Departure

Time 2026-05-07 13:27
Airport Suvarnabhumi Airport (VTBS)

Arrival

Time 2026-05-07 14:30
Airport Chiang Mai International Airport (VTCC)
Time Latitude Longitude Altitude Speed Heading
2026-05-07 13:15 13.69274 100.75553 18 ft 0 kts 284°
2026-05-07 13:20 13.69272 100.75560 19 ft 2 kts 283°
2026-05-07 13:20 13.69269 100.75580 18 ft 3 kts 276°
2026-05-07 13:21 13.69267 100.75601 19 ft 3 kts 266°
2026-05-07 13:21 13.69270 100.75621 18 ft 3 kts 250°
2026-05-07 13:21 13.69279 100.75638 19 ft 3 kts 216°
2026-05-07 13:21 13.69287 100.75643 21 ft 0 kts 194°
2026-05-07 13:24 13.69286 100.75643 21 ft 1 kts 194°
2026-05-07 13:24 13.69252 100.75634 19 ft 9 kts 194°
2026-05-07 13:24 13.69186 100.75633 18 ft 10 kts 157°
2026-05-07 13:24 13.69151 100.75693 18 ft 10 kts 109°
2026-05-07 13:25 13.69132 100.75766 18 ft 11 kts 103°
2026-05-07 13:25 13.69111 100.75841 18 ft 11 kts 107°
2026-05-07 13:25 13.69146 100.75903 18 ft 11 kts 21°
2026-05-07 13:25 13.69203 100.75953 17 ft 9 kts 85°
2026-05-07 13:26 13.69200 100.75974 17 ft 0 kts 97°
2026-05-07 13:26 13.69190 100.76021 17 ft 16 kts 108°
2026-05-07 13:26 13.69121 100.76078 17 ft 13 kts 165°
2026-05-07 13:27 13.69026 100.76066 18 ft 21 kts 193°
2026-05-07 13:27 13.68544 100.75940 23 ft 133 kts 195°
2026-05-07 13:27 13.67279 100.75609 357 ft 222 kts 197°
2026-05-07 13:27 13.65840 100.75142 1513 ft 217 kts 198°
2026-05-07 13:28 13.64341 100.74968 3138 ft 219 kts 182°
2026-05-07 13:28 13.62785 100.75020 4003 ft 231 kts 179°
2026-05-07 13:28 13.61127 100.75089 4730 ft 250 kts 179°
2026-05-07 13:28 13.59331 100.75270 5381 ft 268 kts 168°
2026-05-07 13:29 13.57541 100.75851 6492 ft 271 kts 160°
2026-05-07 13:29 13.55753 100.76510 7633 ft 275 kts 161°
2026-05-07 13:29 13.53911 100.77118 8712 ft 280 kts 163°
2026-05-07 13:29 13.52014 100.77691 9610 ft 287 kts 164°
2026-05-07 13:30 13.50082 100.78253 10133 ft 290 kts 165°
2026-05-07 13:30 13.48099 100.78639 10172 ft 292 kts 182°
2026-05-07 13:30 13.46116 100.78244 10197 ft 290 kts 199°
2026-05-07 13:30 13.44375 100.77210 10189 ft 292 kts 224°
2026-05-07 13:31 13.43243 100.75498 10191 ft 292 kts 249°
2026-05-07 13:31 13.42884 100.73465 10196 ft 291 kts 271°
2026-05-07 13:31 13.43249 100.71447 10198 ft 287 kts 284°
2026-05-07 13:31 13.43773 100.69451 10198 ft 292 kts 284°
2026-05-07 13:32 13.44305 100.67427 10196 ft 294 kts 284°
2026-05-07 13:32 13.44820 100.65425 10187 ft 293 kts 284°
2026-05-07 13:32 13.45338 100.63373 10186 ft 292 kts 284°
2026-05-07 13:32 13.45845 100.61353 10226 ft 293 kts 284°
2026-05-07 13:33 13.46515 100.59316 10440 ft 316 kts 299°
2026-05-07 13:33 13.48058 100.57572 10687 ft 350 kts 326°
2026-05-07 13:33 13.50403 100.56726 11328 ft 368 kts 354°
2026-05-07 13:33 13.52995 100.56767 12270 ft 377 kts
2026-05-07 13:34 13.55595 100.56987 13297 ft 383 kts
2026-05-07 13:34 13.60975 100.57307 15444 ft 392 kts
2026-05-07 13:34 13.63723 100.57392 16434 ft 398 kts
2026-05-07 13:35 13.66516 100.57463 17381 ft 404 kts
2026-05-07 13:35 13.69348 100.57532 18301 ft 410 kts
2026-05-07 13:35 13.72223 100.57606 19208 ft 416 kts
2026-05-07 13:35 13.75133 100.57682 20074 ft 420 kts
2026-05-07 13:36 13.78045 100.57393 20728 ft 426 kts 344°
2026-05-07 13:36 13.80742 100.56124 21453 ft 428 kts 327°
2026-05-07 13:36 13.83266 100.54455 22137 ft 435 kts 327°
2026-05-07 13:36 13.85838 100.52771 22878 ft 440 kts 327°
2026-05-07 13:37 13.88449 100.51098 23660 ft 444 kts 328°
2026-05-07 13:37 13.91100 100.49426 24406 ft 449 kts 328°
2026-05-07 13:37 13.93784 100.47754 25095 ft 454 kts 330°
2026-05-07 13:37 13.96669 100.46418 25696 ft 459 kts 341°
2026-05-07 13:38 13.99743 100.45464 26304 ft 464 kts 344°
2026-05-07 13:38 14.02850 100.44583 26911 ft 468 kts 344°
2026-05-07 13:38 14.06003 100.43677 27508 ft 472 kts 343°
2026-05-07 13:38 14.09171 100.42726 28083 ft 476 kts 343°
2026-05-07 13:39 14.12352 100.41734 28630 ft 480 kts 342°
2026-05-07 13:39 14.15558 100.40714 29153 ft 484 kts 342°
2026-05-07 13:39 14.18783 100.39683 29646 ft 488 kts 342°
2026-05-07 13:39 14.22036 100.38645 30113 ft 491 kts 342°
2026-05-07 13:40 14.25314 100.37604 30557 ft 494 kts 342°
2026-05-07 13:40 14.28597 100.36561 31109 ft 493 kts 342°
2026-05-07 13:40 14.31868 100.35523 31721 ft 491 kts 342°
2026-05-07 13:40 14.35124 100.34488 32321 ft 489 kts 342°
2026-05-07 13:41 14.38372 100.33455 32867 ft 488 kts 342°
2026-05-07 13:41 14.41608 100.32425 33373 ft 487 kts 342°
2026-05-07 13:41 14.44846 100.31395 33867 ft 486 kts 342°
2026-05-07 13:41 14.48041 100.30266 34343 ft 485 kts 337°
2026-05-07 13:42 14.51096 100.28807 34801 ft 484 kts 333°
2026-05-07 13:42 14.54076 100.27198 35288 ft 483 kts 332°
2026-05-07 13:42 14.57043 100.25577 35714 ft 482 kts 332°
2026-05-07 13:42 14.60026 100.24007 36118 ft 481 kts 333°
2026-05-07 13:43 14.63043 100.22473 36184 ft 487 kts 334°
2026-05-07 13:43 14.69240 100.19686 36178 ft 483 kts 341°
2026-05-07 13:44 14.75635 100.17669 36188 ft 480 kts 343°
2026-05-07 13:44 14.82027 100.15687 36191 ft 480 kts 342°
2026-05-07 13:45 14.88387 100.13591 36195 ft 480 kts 342°
2026-05-07 13:45 14.94742 100.11458 36191 ft 480 kts 342°
2026-05-07 13:46 15.01092 100.09336 36186 ft 481 kts 342°
2026-05-07 13:46 15.07468 100.07213 36191 ft 482 kts 342°
2026-05-07 13:47 15.13810 100.05103 36190 ft 482 kts 342°
2026-05-07 13:47 15.20199 100.02975 36188 ft 482 kts 342°
2026-05-07 13:48 15.26584 100.00845 36189 ft 482 kts 342°
2026-05-07 13:48 15.32856 99.98752 36187 ft 482 kts 342°
2026-05-07 13:49 15.39241 99.96619 36189 ft 482 kts 342°
2026-05-07 13:49 15.45622 99.94487 36206 ft 482 kts 342°
2026-05-07 13:50 15.52001 99.92355 36175 ft 482 kts 341°
2026-05-07 13:50 15.58332 99.90237 36106 ft 474 kts 341°
2026-05-07 13:51 15.64624 99.88129 36052 ft 476 kts 342°
2026-05-07 13:51 15.70915 99.86020 36036 ft 475 kts 342°
2026-05-07 13:52 15.77196 99.83914 36027 ft 474 kts 342°
2026-05-07 13:52 15.83261 99.81881 36025 ft 474 kts 342°
2026-05-07 13:53 15.89535 99.79774 36027 ft 474 kts 342°
2026-05-07 13:53 15.95818 99.77664 36028 ft 475 kts 342°
2026-05-07 13:54 16.01836 99.75643 36020 ft 475 kts 342°
2026-05-07 13:54 16.08045 99.73553 36025 ft 475 kts 342°
2026-05-07 13:55 16.14330 99.71436 36026 ft 475 kts 342°
2026-05-07 13:55 16.20615 99.69319 36025 ft 475 kts 342°
2026-05-07 13:56 16.26903 99.67201 36027 ft 475 kts 342°
2026-05-07 13:56 16.33191 99.65079 36021 ft 475 kts 342°
2026-05-07 13:57 16.39481 99.62958 36015 ft 475 kts 342°
2026-05-07 13:57 16.45775 99.60840 36016 ft 475 kts 342°
2026-05-07 13:58 16.52074 99.58718 36017 ft 475 kts 342°
2026-05-07 13:58 16.58369 99.56594 36015 ft 476 kts 342°
2026-05-07 13:59 16.64663 99.54469 36014 ft 475 kts 342°
2026-05-07 13:59 16.70911 99.52358 36016 ft 475 kts 341°
2026-05-07 14:00 16.77200 99.50227 36018 ft 475 kts 341°
2026-05-07 14:00 16.83491 99.48093 36028 ft 475 kts 341°
2026-05-07 14:01 16.89777 99.45957 36026 ft 475 kts 341°
2026-05-07 14:01 16.96056 99.43825 36027 ft 474 kts 341°
2026-05-07 14:02 17.02323 99.41693 36023 ft 475 kts 341°
2026-05-07 14:02 17.08608 99.39554 36027 ft 475 kts 341°
2026-05-07 14:03 17.14895 99.37414 36025 ft 475 kts 341°
2026-05-07 14:03 17.21185 99.35269 36028 ft 476 kts 341°
2026-05-07 14:04 17.27481 99.33121 36029 ft 476 kts 341°
2026-05-07 14:04 17.33734 99.30986 36032 ft 476 kts 341°
2026-05-07 14:05 17.40031 99.28836 36025 ft 476 kts 341°
2026-05-07 14:05 17.46338 99.26734 36026 ft 476 kts 343°
2026-05-07 14:06 17.52778 99.25084 36029 ft 477 kts 345°
2026-05-07 14:06 17.59246 99.23512 36035 ft 477 kts 345°
2026-05-07 14:07 17.64622 99.22188 36031 ft 477 kts 345°
2026-05-07 14:07 17.72173 99.20299 36029 ft 477 kts 345°
2026-05-07 14:08 17.77534 99.18950 36029 ft 477 kts 345°
2026-05-07 14:08 17.83989 99.17330 36029 ft 476 kts 345°
2026-05-07 14:09 17.90432 99.15710 36031 ft 476 kts 345°
2026-05-07 14:09 17.96882 99.14089 36033 ft 477 kts 345°
2026-05-07 14:10 18.03317 99.12468 36036 ft 477 kts 344°
2026-05-07 14:10 18.09771 99.10842 36035 ft 477 kts 344°
2026-05-07 14:10 18.13043 99.10355 36019 ft 479 kts 358°
2026-05-07 14:11 18.16320 99.10751 36014 ft 470 kts 13°
2026-05-07 14:11 18.19306 99.12018 36004 ft 457 kts 25°
2026-05-07 14:11 18.22075 99.13555 35970 ft 442 kts 28°
2026-05-07 14:11 18.24493 99.15469 35954 ft 431 kts 44°
2026-05-07 14:12 18.26276 99.17762 35931 ft 421 kts 49°
2026-05-07 14:12 18.28033 99.20186 35734 ft 410 kts 49°
2026-05-07 14:12 18.29705 99.22561 35136 ft 398 kts 50°
2026-05-07 14:12 18.31362 99.24872 34271 ft 393 kts 43°
2026-05-07 14:13 18.33431 99.26706 33340 ft 388 kts 23°
2026-05-07 14:13 18.35918 99.27743 32483 ft 384 kts 15°
2026-05-07 14:13 18.38453 99.28595 31744 ft 381 kts 15°
2026-05-07 14:13 18.41021 99.29208 30778 ft 380 kts 360°
2026-05-07 14:14 18.43632 99.28902 29636 ft 380 kts 337°
2026-05-07 14:14 18.45873 99.27486 28534 ft 378 kts 312°
2026-05-07 14:14 18.47383 99.25238 27449 ft 379 kts 293°
2026-05-07 14:14 18.48155 99.22586 26355 ft 380 kts 276°
2026-05-07 14:15 18.48207 99.19799 25245 ft 382 kts 262°
2026-05-07 14:15 18.47487 99.17120 24108 ft 383 kts 242°
2026-05-07 14:15 18.46194 99.14668 23038 ft 384 kts 239°
2026-05-07 14:15 18.44750 99.12312 21890 ft 381 kts 230°
2026-05-07 14:16 18.42966 99.10341 20762 ft 375 kts 219°
2026-05-07 14:16 18.40848 99.08774 19529 ft 371 kts 208°
2026-05-07 14:16 18.38491 99.07705 18274 ft 368 kts 196°
2026-05-07 14:16 18.36000 99.07136 17059 ft 365 kts 189°
2026-05-07 14:17 18.33498 99.06784 15817 ft 362 kts 187°
2026-05-07 14:17 18.31005 99.06497 14586 ft 358 kts 186°
2026-05-07 14:17 18.28535 99.06234 13342 ft 355 kts 186°
2026-05-07 14:17 18.26088 99.05991 12105 ft 352 kts 186°
2026-05-07 14:18 18.23661 99.05764 11092 ft 345 kts 186°
2026-05-07 14:18 18.21353 99.05558 10749 ft 319 kts 186°
2026-05-07 14:18 18.19251 99.05357 10540 ft 292 kts 192°
2026-05-07 14:18 18.17490 99.04547 10114 ft 270 kts 224°
2026-05-07 14:19 18.16448 99.02991 9557 ft 258 kts 250°
2026-05-07 14:19 18.16033 99.01184 8920 ft 254 kts 266°
2026-05-07 14:19 18.16114 98.99416 8305 ft 251 kts 284°
2026-05-07 14:19 18.16766 98.97733 7637 ft 250 kts 303°
2026-05-07 14:20 18.17958 98.96414 6995 ft 248 kts 324°
2026-05-07 14:20 18.19412 98.95555 7032 ft 242 kts 337°
2026-05-07 14:20 18.21099 98.95227 6978 ft 254 kts 360°
2026-05-07 14:20 18.22887 98.95299 6955 ft 259 kts
2026-05-07 14:21 18.24681 98.95394 6912 ft 258 kts
2026-05-07 14:21 18.26467 98.95486 6865 ft 256 kts
2026-05-07 14:21 18.28239 98.95573 6814 ft 254 kts
2026-05-07 14:21 18.30001 98.95656 6768 ft 253 kts
2026-05-07 14:22 18.31756 98.95734 6719 ft 251 kts
2026-05-07 14:22 18.33498 98.95809 6687 ft 250 kts
2026-05-07 14:22 18.35212 98.95882 6654 ft 249 kts
2026-05-07 14:22 18.36968 98.95956 6608 ft 249 kts
2026-05-07 14:23 18.38680 98.96025 6567 ft 250 kts
2026-05-07 14:23 18.40418 98.96097 6535 ft 250 kts
2026-05-07 14:23 18.42157 98.96168 6491 ft 249 kts
2026-05-07 14:23 18.43908 98.96222 6237 ft 249 kts 359°
2026-05-07 14:24 18.45614 98.96220 5938 ft 248 kts 359°
2026-05-07 14:24 18.47341 98.96216 5633 ft 248 kts 359°
2026-05-07 14:24 18.49067 98.96217 5314 ft 248 kts 359°
2026-05-07 14:24 18.50793 98.96222 5002 ft 248 kts 359°
2026-05-07 14:25 18.52519 98.96226 4676 ft 248 kts 359°
2026-05-07 14:25 18.54245 98.96229 4361 ft 248 kts 360°
2026-05-07 14:25 18.55968 98.96234 4082 ft 246 kts 360°
2026-05-07 14:25 18.57645 98.96240 3998 ft 234 kts 360°
2026-05-07 14:26 18.59232 98.96244 3918 ft 222 kts 360°
2026-05-07 14:26 18.60727 98.96248 3849 ft 208 kts 360°
2026-05-07 14:26 18.62161 98.96251 3578 ft 203 kts
2026-05-07 14:26 18.63560 98.96255 3309 ft 199 kts
2026-05-07 14:27 18.64927 98.96258 3038 ft 194 kts
2026-05-07 14:27 18.66254 98.96261 2780 ft 188 kts
2026-05-07 14:27 18.67527 98.96265 2554 ft 178 kts
2026-05-07 14:27 18.68726 98.96268 2306 ft 165 kts 359°
2026-05-07 14:28 18.69878 98.96271 2111 ft 167 kts 359°
2026-05-07 14:28 18.71032 98.96283 1954 ft 162 kts 360°
2026-05-07 14:28 18.72134 98.96284 1699 ft 158 kts 359°
2026-05-07 14:28 18.73207 98.96287 1474 ft 150 kts 359°
2026-05-07 14:29 18.74236 98.96287 1264 ft 146 kts 359°
2026-05-07 14:29 18.75239 98.96285 1094 ft 142 kts 359°
2026-05-07 14:29 18.76211 98.96288 1039 ft 132 kts 356°
2026-05-07 14:29 18.76973 98.96289 1036 ft 71 kts 359°
2026-05-07 14:30 18.77371 98.96294 1036 ft 30 kts
2026-05-07 14:30 18.77558 98.96357 1036 ft 28 kts 28°
2026-05-07 14:30 18.77679 98.96438 1036 ft 15 kts 51°
2026-05-07 14:30 18.77631 98.96513 1036 ft 16 kts 170°
2026-05-07 14:31 18.77523 98.96519 1036 ft 16 kts 178°